| time (UTC) | temp F | wind direction | speed knots | gust knots | rain 1hr in | rain 24hr in | rain mn in | humidity % | barometer mb |
| 20260505070253 | 64 | 255 | 0.9 | 1.7 | 0.00 | 0.00 | 0.00 | 70 | 4248.0 |
| 20260505065251 | 64 | 257 | 1.7 | 5.2 | 0.00 | 0.00 | 0.00 | 69 | 4248.3 |
| 20260505064246 | 64 | 272 | 1.7 | 1.7 | 0.00 | 0.00 | 0.00 | 69 | 4248.1 |
| 20260505063246 | 64 | 228 | 0.9 | 0.9 | 0.00 | 0.00 | 0.00 | 69 | 4247.9 |
| 20260505062246 | 64 | 299 | 0.0 | 0.0 | 0.00 | 0.00 | 0.00 | 69 | 4248.1 |
| 20260505061240 | 64 | 237 | 0.9 | 4.3 | 0.00 | 0.00 | 0.00 | 69 | 4248.2 |
| 20260505060241 | 64 | 252 | 1.7 | 1.7 | 0.00 | 0.00 | 0.00 | 69 | 4248.5 |
| 20260505055238 | 64 | 246 | 1.7 | 1.7 | 0.00 | 0.00 | 0.00 | 69 | 4248.6 |
| 20260505054233 | 64 | 250 | 0.9 | 1.7 | 0.00 | 0.00 | 0.00 | 70 | 4248.6 |
| 20260505053233 | 63 | 244 | 0.9 | 0.9 | 0.00 | 0.00 | 0.00 | 70 | 4248.6 |
| 20260505052233 | 64 | 242 | 0.9 | 0.9 | 0.00 | 0.00 | 0.00 | 67 | 4248.7 |
| 20260505051228 | 65 | 242 | 0.9 | 1.7 | 0.00 | 0.00 | 0.00 | 67 | 4248.5 |
| 20260505050224 | 66 | 240 | 1.7 | 1.7 | 0.00 | 0.00 | 0.00 | 64 | 4248.6 |
| 20260505041220 | 67 | 255 | 0.9 | 1.7 | 0.00 | 0.00 | 0.00 | 61 | 4248.2 |
| 20260505040220 | 67 | 85 | 0.9 | 0.9 | 0.00 | 0.00 | 0.00 | 62 | 4248.5 |
| 20260505035218 | 67 | 232 | 0.9 | 1.7 | 0.00 | 0.00 | 0.00 | 61 | 4248.5 |
| 20260505034218 | 68 | 207 | 1.7 | 4.3 | 0.00 | 0.00 | 0.00 | 61 | 4248.2 |
| 20260505033213 | 68 | 184 | 0.0 | 0.9 | 0.00 | 0.00 | 0.00 | 60 | 4248.3 |
| 20260505032212 | 68 | 161 | 0.9 | 0.9 | 0.00 | 0.00 | 0.00 | 60 | 4248.4 |
| 20260505031212 | 68 | 273 | 0.0 | 0.9 | 0.00 | 0.00 | 0.00 | 60 | 4248.1 |
| 20260505030210 | 68 | 184 | 0.0 | 0.9 | 0.00 | 0.00 | 0.00 | 62 | 4248.3 |
| 20260505025205 | 68 | 186 | 0.9 | 0.9 | 0.00 | 0.00 | 0.00 | 62 | 4247.9 |
| 20260505024205 | 68 | 178 | 0.0 | 0.9 | 0.00 | 0.00 | 0.00 | 61 | 4248.1 |
| 20260505023200 | 68 | 184 | 0.0 | 0.9 | 0.00 | 0.00 | 0.00 | 61 | 4248.1 |
| 20260505022200 | 68 | 184 | 0.0 | 0.0 | 0.00 | 0.00 | 0.00 | 60 | 4248.1 |
| 20260505021159 | 68 | 174 | 0.0 | 0.0 | 0.00 | 0.00 | 0.00 | 60 | 4247.9 |
| 20260505020156 | 68 | 181 | 0.0 | 0.0 | 0.00 | 0.00 | 0.00 | 60 | 4247.9 |
| 20260505015156 | 68 | 186 | 0.0 | 0.9 | 0.00 | 0.00 | 0.00 | 62 | 4247.9 |
| 20260505014156 | 67 | 175 | 0.0 | 0.0 | 0.00 | 0.00 | 0.00 | 63 | 4247.9 |
| 20260505013156 | 68 | 181 | 0.0 | 0.9 | 0.00 | 0.00 | 0.00 | 64 | 4247.6 |
| 20260505012152 | 69 | 187 | 0.0 | 0.9 | 0.00 | 0.00 | 0.00 | 63 | 4247.7 |
| 20260505011149 | 69 | 187 | 0.9 | 0.9 | 0.00 | 0.00 | 0.00 | 60 | 4248.0 |
| 20260505010148 | 69 | 188 | 0.0 | 0.0 | 0.00 | 0.00 | 0.00 | 60 | 4247.9 |
| 20260505005147 | 70 | 300 | 0.0 | 0.0 | 0.00 | 0.00 | 0.00 | 58 | 4247.8 |
| 20260505004146 | 71 | 303 | 0.0 | 0.0 | 0.00 | 0.00 | 0.00 | 57 | 4247.7 |
| 20260505003141 | 72 | 288 | 0.0 | 0.0 | 0.00 | 0.00 | 0.00 | 55 | 4247.5 |
| 20260505002141 | 73 | 278 | 0.0 | 0.9 | 0.00 | 0.00 | 0.00 | 52 | 4247.6 |
| 20260505001141 | 74 | 306 | 0.0 | 0.0 | 0.00 | 0.00 | 0.00 | 51 | 4247.4 |
| 20260505000136 | 75 | 259 | 0.9 | 0.9 | 0.00 | 0.00 | 0.00 | 49 | 4247.5 |
| 20260504235134 | 76 | 250 | 0.0 | 0.9 | 0.00 | 0.00 | 0.00 | 48 | 4247.4 |
| 20260504234129 | 76 | 205 | 2.6 | 2.6 | 0.00 | 0.00 | 0.00 | 46 | 4247.6 |
| 20260504233126 | 77 | 304 | 1.7 | 4.3 | 0.00 | 0.00 | 0.00 | 46 | 4247.4 |
| 20260504232121 | 77 | 253 | 2.6 | 2.6 | 0.00 | 0.00 | 0.00 | 47 | 4247.5 |
| 20260504231120 | 78 | 297 | 0.9 | 1.7 | 0.00 | 0.00 | 0.00 | 46 | 4247.4 |
| 20260504230115 | 79 | 201 | 2.6 | 2.6 | 0.00 | 0.00 | 0.00 | 44 | 4247.4 |
| 20260504225115 | 79 | 217 | 1.7 | 1.7 | 0.00 | 0.00 | 0.00 | 46 | 4247.6 |
| 20260504224114 | 80 | 333 | 1.7 | 4.3 | 0.00 | 0.00 | 0.00 | 45 | 4247.5 |
| 20260504223113 | 80 | 355 | 0.9 | 0.9 | 0.00 | 0.00 | 0.00 | 45 | 4247.7 |
| 20260504222113 | 80 | 246 | 4.3 | 5.2 | 0.00 | 0.00 | 0.00 | 44 | 4247.8 |
| 20260504221113 | 81 | 247 | 3.5 | 4.3 | 0.00 | 0.00 | 0.00 | 42 | 4247.6 |
| 20260504220113 | 80 | 121 | 5.2 | 7.0 | 0.00 | 0.00 | 0.00 | 42 | 4247.7 |
| 20260504215113 | 81 | 285 | 2.6 | 4.3 | 0.00 | 0.00 | 0.00 | 41 | 4247.8 |
| 20260504214110 | 81 | 250 | 1.7 | 2.6 | 0.00 | 0.00 | 0.00 | 41 | 4247.5 |
| 20260504213110 | 82 | 46 | 1.7 | 1.7 | 0.00 | 0.00 | 0.00 | 42 | 4247.9 |
| 20260504212109 | 80 | 350 | 0.9 | 1.7 | 0.00 | 0.00 | 0.00 | 43 | 4248.0 |
| 20260504211109 | 82 | 298 | 3.5 | 6.1 | 0.00 | 0.00 | 0.00 | 42 | 4248.0 |
| 20260504210108 | 81 | 331 | 2.6 | 4.3 | 0.00 | 0.00 | 0.00 | 45 | 4248.1 |
| 20260504205103 | 81 | 249 | 1.7 | 2.6 | 0.00 | 0.00 | 0.00 | 42 | 4248.0 |
| 20260504204100 | 82 | 257 | 2.6 | 4.3 | 0.00 | 0.00 | 0.00 | 41 | 4248.2 |
| 20260504203055 | 82 | 255 | 2.6 | 2.6 | 0.00 | 0.00 | 0.00 | 43 | 4248.4 |
| 20260504202054 | 80 | 313 | 1.7 | 1.7 | 0.00 | 0.00 | 0.00 | 46 | 4248.6 |
| 20260504201048 | 81 | 281 | 1.7 | 2.6 | 0.00 | 0.00 | 0.00 | 46 | 4248.6 |
| 20260504200047 | 82 | 242 | 4.3 | 6.1 | 0.00 | 0.00 | 0.00 | 45 | 4248.8 |
| 20260504195046 | 81 | 295 | 1.7 | 1.7 | 0.00 | 0.00 | 0.00 | 48 | 4249.0 |
| 20260504194043 | 81 | 246 | 5.2 | 6.1 | 0.00 | 0.00 | 0.00 | 42 | 4249.3 |
| 20260504193039 | 81 | 322 | 1.7 | 2.6 | 0.00 | 0.00 | 0.00 | 44 | 4249.0 |
| 20260504192035 | 82 | 1 | 2.6 | 4.3 | 0.00 | 0.00 | 0.00 | 44 | 4249.2 |
| 20260504191034 | 81 | 342 | 1.7 | 1.7 | 0.00 | 0.00 | 0.00 | 46 | 4249.5 |
| 20260504190032 | 81 | 270 | 2.6 | 2.6 | 0.00 | 0.00 | 0.00 | 45 | 4249.7 |
| 20260504185032 | 82 | 264 | 4.3 | 5.2 | 0.00 | 0.00 | 0.00 | 44 | 4249.7 |
| 20260504184028 | 80 | 282 | 2.6 | 4.3 | 0.00 | 0.00 | 0.00 | 46 | 4249.6 |
| 20260504183024 | 80 | 272 | 1.7 | 1.7 | 0.00 | 0.00 | 0.00 | 47 | 4249.6 |
| 20260504182024 | 79 | 275 | 2.6 | 2.6 | 0.00 | 0.00 | 0.00 | 50 | 4249.7 |
| 20260504181019 | 79 | 255 | 2.6 | 2.6 | 0.00 | 0.00 | 0.00 | 48 | 4250.0 |
| 20260504180016 | 78 | 214 | 2.6 | 2.6 | 0.00 | 0.00 | 0.00 | 48 | 4250.2 |
| 20260504175016 | 79 | 252 | 3.5 | 4.3 | 0.00 | 0.00 | 0.00 | 47 | 4250.1 |
| 20260504174016 | 79 | 254 | 3.5 | 4.3 | 0.00 | 0.00 | 0.00 | 51 | 4250.1 |
| 20260504173016 | 78 | 158 | 3.5 | 5.2 | 0.00 | 0.00 | 0.00 | 50 | 4250.4 |
| 20260504172014 | 78 | 267 | 2.6 | 4.3 | 0.00 | 0.00 | 0.00 | 49 | 4250.7 |
| 20260504171014 | 78 | 23 | 0.9 | 1.7 | 0.00 | 0.00 | 0.00 | 52 | 4250.7 |
| 20260504150952 | 73 | 238 | 1.7 | 1.7 | 0.00 | 0.00 | 0.00 | 58 | 4251.8 |
| 20260504140950 | 68 | 248 | 0.9 | 2.6 | 0.00 | 0.00 | 0.00 | 64 | 4252.3 |
| 20260504081840 | 57 | 250 | 0.9 | 1.7 | 0.00 | 0.00 | 0.00 | 73 | 4251.2 |
| 20260504080838 | 57 | 241 | 1.7 | 2.6 | 0.00 | 0.00 | 0.00 | 73 | 4251.1 |